VE3KCY Weather Reports


time (UTC)temp
C
wind
direction
speed
KPH
gust
KPH
rain 1hr
cm
rain 24hr
cm
rain mn
cm
humidity
%
barometer
mb
20260506014509 5 188 0.0 0.0 0.00 0.10 0.10 84 1008.3
20260506013012 5 188 0.0 0.0 0.00 0.10 0.10 83 1008.1
20260506011517 6 188 0.0 0.0 0.00 0.10 0.10 81 1008.0
20260506010025 6 188 0.0 1.6 0.00 0.10 0.10 79 1007.7
20260506004514 7 188 0.0 0.0 0.00 0.10 0.10 77 1007.3
20260506003008 7 188 0.0 0.0 0.00 0.10 0.10 77 1007.3
20260506001512 7 188 0.0 3.2 0.00 0.10 0.10 74 1007.3
20260506000025 7 188 0.0 3.2 0.00 0.10 0.10 75 1007.4
20260505234522 7 188 0.0 3.2 0.00 0.10 0.10 73 1007.3
20260505233007 8 238 0.0 3.2 0.00 0.10 0.10 71 1007.2
20260505231513 8 233 0.0 3.2 0.00 0.10 0.10 71 1007.1
20260505230030 8 261 0.0 3.2 0.00 0.10 0.10 71 1007.0
20260505224520 8 266 0.0 4.8 0.00 0.10 0.10 68 1007.1
20260505223024 8 217 0.0 3.2 0.00 0.10 0.10 71 1007.4
20260505221508 8 250 1.6 3.2 0.00 0.10 0.10 70 1007.7
20260505220014 8 222 0.0 3.2 0.00 0.10 0.10 71 1007.3
20260505214519 8 228 1.6 6.4 0.00 0.10 0.10 70 1007.4
20260505213027 8 245 1.6 4.8 0.00 0.10 0.10 69 1007.4
20260505211530 7 241 0.0 6.4 0.00 0.10 0.10 72 1007.3
20260505210009 7 203 0.0 8.0 0.00 0.10 0.10 73 1007.2
20260505204517 7 234 1.6 8.0 0.00 0.10 0.10 72 1007.3
20260505203023 7 250 0.0 3.2 0.00 0.10 0.10 74 1007.1
20260505201525 7 229 1.6 6.4 0.00 0.10 0.10 73 1007.2
20260505200028 7 276 1.6 11.3 0.00 0.10 0.10 75 1007.1
20260505194513 7 340 1.6 11.3 0.00 0.10 0.10 79 1007.1
20260505193020 7 210 0.0 9.7 0.05 0.10 0.10 80 1006.8
20260505191530 7 272 0.0 6.4 0.10 0.10 0.10 82 1006.5
20260505190028 7 267 1.6 6.4 0.10 0.10 0.10 82 1006.7
20260505184537 7 259 0.0 6.4 0.10 0.10 0.10 82 1006.3
20260505183019 7 281 0.0 4.8 0.05 0.05 0.05 80 1006.2
20260505181503 8 245 1.6 6.4 0.00 0.00 0.00 76 1006.2
20260505180005 9 352 1.6 6.4 0.00 0.00 0.00 67 1005.9
20260505174508 10 338 3.2 8.0 0.00 0.00 0.00 60 1005.6
20260505173014 10 304 1.6 11.3 0.00 0.00 0.00 58 1005.3
20260505171530 10 288 1.6 9.7 0.00 0.00 0.00 62 1005.3
20260505170004 10 237 1.6 8.0 0.00 0.00 0.00 58 1005.3
20260505164504 11 357 1.6 9.7 0.00 0.00 0.00 59 1005.2
20260505163014 11 304 4.8 12.9 0.00 0.00 0.00 58 1005.0
20260505161518 11 303 1.6 11.3 0.00 0.00 0.00 59 1004.9
20260505153028 11 11 3.2 12.9 0.00 0.00 0.00 58 1004.9
20260505151514 11 231 3.2 9.7 0.00 0.00 0.00 62 1004.1
20260505124519 8 352 3.2 9.7 0.00 0.00 0.00 82 1002.3
20260505123030 9 321 3.2 9.7 0.00 0.00 0.00 82 1001.5
20260505121528 10 267 1.6 11.3 0.00 0.00 0.00 83 1001.2
20260505120011 11 91 1.6 14.5 0.00 0.00 0.00 83 1001.0
20260505114516 12 284 4.8 14.5 0.00 0.00 0.00 83 1000.4
20260505113022 12 233 3.2 12.9 0.00 0.00 0.00 83 1000.2
20260505111532 12 268 4.8 14.5 0.00 0.00 0.00 83 999.9
20260505101524 12 233 3.2 11.3 0.00 0.00 0.00 84 999.0
20260505100032 12 206 4.8 9.7 0.00 0.00 0.00 84 999.0
20260505094526 12 302 1.6 9.7 0.00 0.00 0.00 83 998.8
20260505093018 12 229 1.6 12.9 0.00 0.00 0.00 83 998.5
20260505091504 12 221 3.2 11.3 0.00 0.00 0.00 83 998.4
20260505090008 12 196 3.2 12.9 0.00 0.00 0.00 82 998.5
20260505084512 12 245 1.6 6.4 0.00 0.00 0.00 82 998.0
20260505083015 12 217 1.6 6.4 0.00 0.00 0.00 81 998.1
20260505081525 13 237 3.2 9.7 0.00 0.00 0.00 79 998.2
20260505080003 13 219 3.2 8.0 0.00 0.00 0.00 79 998.6
20260505074508 13 236 3.2 8.0 0.00 0.00 0.00 78 998.7
20260505073015 13 201 3.2 12.9 0.00 0.00 0.00 77 998.8
20260505071520 13 143 3.2 14.5 0.00 0.00 0.00 78 998.9
20260505070022 13 221 1.6 14.5 0.00 0.00 0.00 77 999.1
20260505064505 13 176 4.8 16.1 0.00 0.00 0.00 76 999.0
20260505063011 13 220 4.8 14.5 0.00 0.00 0.00 76 999.2
20260505061516 13 172 4.8 12.9 0.00 0.00 0.00 76 999.3
20260505060022 13 199 3.2 19.3 0.00 0.00 0.00 76 999.4
20260505054542 13 205 3.2 12.9 0.00 0.00 0.00 76 999.5
20260505053011 13 191 3.2 12.9 0.00 0.00 0.00 76 999.6
20260505051516 14 323 3.2 20.9 0.00 0.00 0.00 75 999.5
20260505041511 15 144 4.8 20.9 0.00 0.00 0.00 72 999.5
20260505040016 14 200 8.0 17.7 0.00 0.00 0.00 72 999.6
20260505034526 14 349 6.4 12.9 0.00 0.00 0.00 73 999.7
20260505033024 14 105 4.8 16.1 0.00 0.00 0.00 72 999.8
20260505031505 15 208 4.8 22.5 0.00 0.00 0.00 71 999.8
20260505030033 15 198 4.8 20.9 0.00 0.00 0.00 70 1000.0
20260505024518 15 101 4.8 14.5 0.00 0.00 0.00 69 1000.1
20260505023025 15 165 4.8 14.5 0.00 0.00 0.00 69 1000.0
20260505021525 15 157 4.8 11.3 0.00 0.00 0.00 68 1000.1
20260505020012 15 181 3.2 8.0 0.00 0.00 0.00 66 1000.3